Weather History for Shelbyville, IN

Change the Weather History Date:

Monday, August 26, 2013

  Actual Average Record
Temperature  
Mean Temperature 76 °F 72 °F  
Max Temperature 89 °F 83 °F 92 °F (2014)
Min Temperature 62 °F 60 °F 53 °F (2010)
Degree Days  
Heating Degree Days 0 0  
Month to date heating degree days 6 0  
Since 1 June heating degree days 13 16  
Since 1 July heating degree days 8 1  
Cooling Degree Days 11 7  
Month to date cooling degree days 178 200  
Year to date cooling degree days 904 773  
Since 1 June cooling degree days 736 692  
Growing Degree Days 25 (Base 50)    
Moisture  
Dew Point 66 °F    
Average Humidity 70    
Maximum Humidity 90    
Minimum Humidity 50    
Precipitation  
Precipitation 0.00 in 0.14 in 0.69 in (2004)
Month to date precipitation 2.44 2.72  
Year to date precipitation 20.58 29.61  
Sea Level Pressure  
Sea Level Pressure 30.17 in    
Wind  
Wind Speed 5 mph (SW)    
Max Wind Speed 13 mph    
Max Gust Speed 16 mph    
Visibility 9 miles    
Events      
T = Trace of Precipitation, MM = Missing Value Source: NWS Daily Summary

Daily Weather History Graph

Daily Weather History Graph

Search for Another Location

Airport:

Trip Planner

Search our weather history database for the weather conditions in past years. The results will help you decide how hot, cold, wet, or windy it might be!

Date:

Astronomy

Aug. 26, 2013 Rise Set
Actual Time 7:06 AM EDT 8:23 PM EDT
Civil Twilight 6:38 AM EDT 8:50 PM EDT
Nautical Twilight 6:04 AM EDT 9:24 PM EDT
Astronomical Twilight 5:29 AM EDT 9:59 PM EDT
Moon 11:34 PM EDT (8/26) 1:05 PM EDT (8/26)
Length of Visible Light 14h 12m
Length of Day
13h 16m
Waning Gibbous, 67% of the Moon is Illuminated
Aug 26
Waning Gibbous
Aug 28
Last Quarter
Sep 5
New
Sep 12
First Quarter
Sep 19
Full

Hourly Weather History & Observations

Time (EDT) Temp. Heat Index Dew Point Humidity Pressure Visibility Wind Dir Wind Speed Gust Speed Precip Events Conditions
12:53 AM 63.0 °F - 59.0 °F 87% 30.24 in 10.0 mi Calm Calm - N/A   Clear
1:53 AM 62.1 °F - 57.9 °F 86% 30.23 in 10.0 mi SSE 3.5 mph - N/A   Clear
2:53 AM 63.0 °F - 57.9 °F 84% 30.21 in 10.0 mi SSE 3.5 mph - N/A   Clear
3:53 AM 64.0 °F - 57.9 °F 80% 30.21 in 10.0 mi South 4.6 mph - N/A   Clear
4:53 AM 64.9 °F - 59.0 °F 81% 30.20 in 10.0 mi South 3.5 mph - N/A   Clear
5:53 AM 63.0 °F - 59.0 °F 87% 30.20 in 10.0 mi South 3.5 mph - N/A   Clear
6:53 AM 62.1 °F - 59.0 °F 90% 30.21 in 10.0 mi Calm Calm - N/A   Clear
7:53 AM 64.9 °F - 60.1 °F 84% 30.23 in 8.0 mi Calm Calm - N/A   Clear
8:53 AM 70.0 °F - 64.9 °F 84% 30.24 in 8.0 mi SSW 3.5 mph - N/A   Clear
9:53 AM 75.0 °F - 69.1 °F 82% 30.23 in 7.0 mi WSW 5.8 mph - N/A   Clear
10:53 AM 80.1 °F 83.8 °F 72.0 °F 76% 30.22 in 7.0 mi WSW 6.9 mph - N/A   Clear
11:53 AM 84.0 °F 90.2 °F 73.0 °F 69% 30.21 in 7.0 mi WSW 11.5 mph - N/A   Mostly Cloudy
12:17 PM 84.2 °F 90.9 °F 73.4 °F 70% 30.23 in 8.0 mi West 9.2 mph - N/A   Scattered Clouds
12:53 PM 86.0 °F 93.0 °F 73.0 °F 65% 30.20 in 8.0 mi West 9.2 mph - N/A   Mostly Cloudy
1:53 PM 86.0 °F 91.5 °F 71.1 °F 61% 30.18 in 9.0 mi WSW 9.2 mph - N/A   Partly Cloudy
2:53 PM 88.0 °F 92.9 °F 70.0 °F 55% 30.15 in 10.0 mi WSW 5.8 mph - N/A   Clear
3:53 PM 87.1 °F 90.6 °F 68.0 °F 53% 30.12 in 10.0 mi WSW 8.1 mph - N/A   Clear
4:53 PM 87.1 °F 89.9 °F 66.9 °F 51% 30.10 in 10.0 mi WSW 10.4 mph - N/A   Clear
5:53 PM 86.0 °F 88.8 °F 66.9 °F 53% 30.09 in 10.0 mi WSW 6.9 mph - N/A   Clear
6:53 PM 84.0 °F 87.8 °F 69.1 °F 61% 30.08 in 10.0 mi WSW 5.8 mph - N/A   Clear
7:53 PM 82.9 °F 85.8 °F 68.0 °F 60% 30.09 in 10.0 mi WSW 5.8 mph - N/A   Clear
8:53 PM 80.1 °F 82.7 °F 68.0 °F 67% 30.09 in 10.0 mi Calm Calm - N/A   Clear
9:53 PM 75.0 °F - 69.1 °F 82% 30.10 in 9.0 mi SSW 4.6 mph - N/A   Clear
10:53 PM 75.0 °F - 68.0 °F 79% 30.09 in 9.0 mi South 5.8 mph - N/A   Clear
11:53 PM 73.0 °F - 68.0 °F 84% 30.09 in 8.0 mi SSW 4.6 mph - N/A   Clear